Location: Br�znic
(45.9167°N, 22.6500°E)
Time: 14:34:49
(UTC+00:00)

USA 306 - Pass Details

Date: 03 March 2021
Orbit: 564 x 577 km, 54.0° (Epoch: 10 April)

Event Time Altitude Azimuth Distance (km) Brightness Sun altitude
Rises 16:41:25 0° 270° (W) 2,782 9.3 -4.7°
Reaches altitude 10° 16:43:51 10° 280° (W) 1,883 7.2 -5.2°
Maximum altitude 16:47:45 33° 345° (NNW) 974 4.2 -5.8°
Drops below altitude 10° 16:51:39 10° 51° (NE) 1,879 5.1 -6.5°
Enters shadow 16:52:52 - 57° (ENE) 2,321 5.5 -6.7°
